EWG5WA EDDH-EDDH

Flight info

Callsign EWG5WA
Flight time 0h 8m
Altitude 28000
Route ELSOB3G/33 ELSOB Y348 OMWEG DCT BADOS DCT ATTUS P992 BAVTA/N0432F270 N873 INTET T55 TESPI
Aircraft A21N/M-SDE2E3FGHIRWXY/LB1

Departure

Time 2026-05-04 19:16
Airport Hamburg Helmut Schmidt Airport (EDDH)

Arrival

Time 2026-05-04 19:25
Airport Hamburg Helmut Schmidt Airport (EDDH)
Time Latitude Longitude Altitude Speed Heading
2026-05-04 19:13 54.14506 9.76674 11064 ft 308 kts 123°
2026-05-04 19:13 54.13411 9.79820 11021 ft 308 kts 124°
2026-05-04 19:13 54.12304 9.82955 10986 ft 308 kts 124°
2026-05-04 19:14 54.11197 9.86080 10981 ft 308 kts 124°
2026-05-04 19:14 54.10090 9.89204 10980 ft 308 kts 124°
2026-05-04 19:14 54.08984 9.92325 10977 ft 304 kts 124°
2026-05-04 19:14 54.07921 9.95336 10398 ft 296 kts 124°
2026-05-04 19:15 54.06852 9.98363 9523 ft 299 kts 124°
2026-05-04 19:15 54.05743 10.01329 8695 ft 295 kts 133°
2026-05-04 19:15 54.04299 10.03747 7920 ft 289 kts 142°
2026-05-04 19:15 54.02779 10.05940 7185 ft 285 kts 144°
2026-05-04 19:16 54.01258 10.08092 6459 ft 283 kts 144°
2026-05-04 19:16 53.99753 10.10209 5704 ft 280 kts 144°
2026-05-04 19:16 53.98250 10.12291 5000 ft 276 kts 144°
2026-05-04 19:16 53.96756 10.14320 4447 ft 274 kts 144°
2026-05-04 19:17 53.95265 10.16324 4056 ft 272 kts 144°
2026-05-04 19:17 53.93779 10.18310 3955 ft 272 kts 144°
2026-05-04 19:17 53.92337 10.20234 3939 ft 250 kts 144°
2026-05-04 19:17 53.91026 10.21993 3916 ft 240 kts 144°
2026-05-04 19:18 53.89718 10.23747 3941 ft 240 kts 144°
2026-05-04 19:18 53.88404 10.25509 3955 ft 240 kts 144°
2026-05-04 19:18 53.87096 10.27265 3959 ft 240 kts 144°
2026-05-04 19:18 53.85786 10.29023 3964 ft 240 kts 144°
2026-05-04 19:19 53.84359 10.30422 3951 ft 236 kts 167°
2026-05-04 19:19 53.82760 10.30553 3792 ft 229 kts 195°
2026-05-04 19:19 53.81254 10.29738 3573 ft 227 kts 203°
2026-05-04 19:19 53.79783 10.28771 3342 ft 226 kts 204°
2026-05-04 19:20 53.78355 10.27815 3092 ft 214 kts 204°
2026-05-04 19:20 53.77074 10.26718 2953 ft 203 kts 218°
2026-05-04 19:20 53.76015 10.25154 2952 ft 202 kts 228°
2026-05-04 19:20 53.75102 10.23367 2965 ft 201 kts 233°
2026-05-04 19:21 53.74213 10.21541 2977 ft 201 kts 232°
2026-05-04 19:21 53.73318 10.19713 2968 ft 201 kts 232°
2026-05-04 19:21 53.72425 10.17893 2796 ft 201 kts 232°
2026-05-04 19:21 53.71560 10.16133 2546 ft 186 kts 232°
2026-05-04 19:22 53.70754 10.14491 2362 ft 177 kts 232°
2026-05-04 19:22 53.69986 10.12930 2100 ft 172 kts 232°
2026-05-04 19:22 53.69224 10.11381 1882 ft 171 kts 232°
2026-05-04 19:22 53.68492 10.09892 1644 ft 160 kts 232°
2026-05-04 19:23 53.67798 10.08482 1401 ft 154 kts 232°
2026-05-04 19:23 53.67164 10.07195 1192 ft 136 kts 232°
2026-05-04 19:23 53.66561 10.05971 1007 ft 135 kts 233°
2026-05-04 19:23 53.66163 10.05164 867 ft 135 kts 233°
2026-05-04 19:24 53.65567 10.03940 686 ft 135 kts 234°
2026-05-04 19:24 53.64974 10.02728 509 ft 134 kts 232°
2026-05-04 19:24 53.64374 10.01528 317 ft 133 kts 233°
2026-05-04 19:24 53.63784 10.00332 154 ft 133 kts 232°
2026-05-04 19:25 53.63201 9.99153 64 ft 124 kts 233°
2026-05-04 19:25 53.62729 9.98201 48 ft 70 kts 230°
2026-05-04 19:25 53.62559 9.97846 46 ft 18 kts 231°
2026-05-04 19:25 53.62450 9.97814 48 ft 16 kts 147°
2026-05-04 19:26 53.62437 9.97998 51 ft 15 kts 79°
2026-05-04 19:26 53.62438 9.98008 52 ft 0 kts 81°
2026-05-04 19:26 53.62439 9.98015 52 ft 3 kts 77°
2026-05-04 19:26 53.62468 9.98098 52 ft 11 kts 56°
2026-05-04 19:27 53.62522 9.98214 52 ft 15 kts 51°
2026-05-04 19:27 53.62598 9.98368 52 ft 18 kts 50°
2026-05-04 19:27 53.62684 9.98542 52 ft 20 kts 50°
2026-05-04 19:27 53.62778 9.98730 52 ft 22 kts 50°
2026-05-04 19:28 53.62879 9.98936 52 ft 23 kts 50°
2026-05-04 19:28 53.62987 9.99154 52 ft 25 kts 50°
2026-05-04 19:28 53.63067 9.99322 52 ft 17 kts 58°
2026-05-04 19:28 53.63076 9.99346 52 ft 0 kts 57°
2026-05-04 19:31 53.63082 9.99361 52 ft 7 kts 57°
2026-05-04 19:31 53.63148 9.99514 52 ft 20 kts 54°
2026-05-04 19:32 53.63220 9.99672 54 ft 10 kts 54°
2026-05-04 19:32 53.63200 9.99781 52 ft 11 kts 147°
2026-05-04 19:32 53.63126 9.99844 54 ft 12 kts 153°
2026-05-04 19:32 53.63046 9.99912 54 ft 14 kts 154°
2026-05-04 19:33 53.62996 9.99958 54 ft 0 kts 151°
2026-05-04 19:35 53.62980 9.99973 54 ft 11 kts 151°
2026-05-04 19:36 53.62872 10.00054 52 ft 19 kts 158°
2026-05-04 19:36 53.62762 10.00143 54 ft 10 kts 153°
2026-05-04 19:36 53.62743 10.00184 54 ft 5 kts 87°
2026-05-04 19:36 53.62761 10.00236 51 ft 6 kts 62°
2026-05-04 19:37 53.62768 10.00258 54 ft 0 kts 63°
2026-05-04 19:37 53.62771 10.00268 54 ft 2 kts 61°